Location: Lewisville
(33.0462°N, 96.9942°W)
Time: 03:43:53
(UTC-06:00)

Envisat - Pass Details

Date: 07 February 2020
Orbit: 764 x 766 km, 98.2° (Epoch: 06 December)

Event Time Altitude Azimuth Distance (km) Brightness Sun altitude
Rises 18:19:22 0° 168° (SSE) 3,214 6.3 -3.6°
Reaches altitude 10° 18:21:40 10° 169° (S) 2,292 5.6 -4.1°
Maximum altitude 18:26:43 82° 257° (WSW) 776 3.2 -5.1°
Drops below altitude 10° 18:31:49 10° 346° (NNW) 2,307 5.5 -6.1°
Sets 18:34:08 0° 347° (NNW) 3,237 6.2 -6.6°
